H-2A R/B (47203 NORAD) Tracking and Keplerian Element Data
This shows tracking and keplerian element data for the satellite.
Feedback or suggestion? Click here.
Element | Value |
Catalog | 47203 |
Name | H-2A R/B |
Epoch Orbit | 68 |
Epoch Day | 363.45725709 |
Epoch Year | 2020 |
RAAN | 205.5461 |
Inclination | 28.3807 |
Eccentricity | 0.7243457 |
Argument of Perigee | 196.4802 |
Mean Anonmoly | 113.5767 |
Mean Motion | 2.34750077 |
Decay Rate | 8.769E-05 |
L1 | 1 47203U 20089B 20363.45725709 .00008769 00000-0 10191-2 0 9992 |
L2 | 2 47203 28.3807 205.5461 7243457 196.4802 113.5767 2.34750077 680 |
Live tracking and technical data element details for H-2A R/B (NORAD 47203). H-2A R/B can be tracked NOW for your location showing map with azimuth and elevation plus other details from your city location.
Track the satellite on the map from your city or location and see movement details for azimuth, elevation, latitude, longitude, range, height, and movement on the map or in text.
IsCatalogInMostPopularTable: catalog: 47203, numindb: 37
Update: records affected: 1
GetName: 47203 H-2A R/B
Hit Count: updated at: Tue, 02 Mar 2021 13:24:28 GMT